Time,TemperatureF,DewpointF,PressureIn,WindDirection,WindDirectionDegrees,WindSpeedMPH,WindSpeedGustMPH,Humidity,HourlyPrecipIn,Conditions,Clouds,dailyrainin,SoftwareType,DateUTC
2013-06-26 00:08:00,65.7,64.8,29.85,East,90,0.0,-999.0,97,-99.99,,,0.00,Acu-Link.com,2013-06-26 04:08:00,
2013-06-26 00:23:00,65.5,64.9,29.85,ENE,67,0.0,-999.0,98,-99.99,,,0.00,Acu-Link.com,2013-06-26 04:23:00,
2013-06-26 00:38:00,67.1,65.3,29.87,ENE,67,4.2,-999.0,94,-99.99,,,0.00,Acu-Link.com,2013-06-26 04:38:00,
2013-06-26 00:53:00,67.1,65.3,29.90,ESE,112,7.3,-999.0,94,-99.99,,,0.00,Acu-Link.com,2013-06-26 04:53:00,
2013-06-26 01:08:00,67.3,65.2,29.89,East,90,4.7,-999.0,93,-99.99,,,0.00,Acu-Link.com,2013-06-26 05:08:00,
2013-06-26 01:23:00,66.7,65.2,29.89,North,0,5.8,-999.0,95,-99.99,,,0.00,Acu-Link.com,2013-06-26 05:23:00,
2013-06-26 01:39:00,65.5,65.2,29.91,East,90,3.2,-999.0,99,-99.99,,,0.27,Acu-Link.com,2013-06-26 05:39:00,
2013-06-26 01:54:00,65.3,65.0,29.91,South,180,1.1,-999.0,99,-99.99,,,0.65,Acu-Link.com,2013-06-26 05:54:00,
2013-06-26 02:09:00,64.9,64.6,29.90,East,90,4.7,-999.0,99,-99.99,,,0.81,Acu-Link.com,2013-06-26 06:09:00,
2013-06-26 02:24:00,64.6,64.3,29.90,SSE,157,4.7,-999.0,99,-99.99,,,1.49,Acu-Link.com,2013-06-26 06:24:00,
2013-06-26 02:40:00,64.6,64.3,29.88,East,90,4.7,-999.0,99,-99.99,,,1.71,Acu-Link.com,2013-06-26 06:40:00,
2013-06-26 02:55:00,64.6,64.3,29.87,ESE,112,3.7,-999.0,99,-99.99,,,1.76,Acu-Link.com,2013-06-26 06:55:00,
2013-06-26 03:10:00,64.6,64.3,29.88,WNW,292,5.3,-999.0,99,-99.99,,,1.80,Acu-Link.com,2013-06-26 07:10:00,
2013-06-26 03:26:00,64.8,64.5,29.89,SW,225,2.7,-999.0,99,-99.99,,,2.25,Acu-Link.com,2013-06-26 07:26:00,
2013-06-26 03:41:00,64.6,64.3,29.87,ESE,112,1.7,-999.0,99,-99.99,,,2.47,Acu-Link.com,2013-06-26 07:41:00,
2013-06-26 03:56:00,64.6,64.3,29.87,ESE,112,1.7,-999.0,99,-99.99,,,2.49,Acu-Link.com,2013-06-26 07:56:00,
2013-06-26 04:11:00,64.6,64.3,29.86,ESE,112,2.7,-999.0,99,-99.99,,,2.55,Acu-Link.com,2013-06-26 08:11:00,
2013-06-26 04:27:00,64.6,64.3,29.88,West,270,2.7,-999.0,99,-99.99,,,2.65,Acu-Link.com,2013-06-26 08:27:00,
2013-06-26 04:42:00,64.6,64.3,29.87,ESE,112,2.7,-999.0,99,-99.99,,,2.71,Acu-Link.com,2013-06-26 08:42:00,
2013-06-26 04:57:00,64.6,64.3,29.87,South,180,0.0,-999.0,99,-99.99,,,3.02,Acu-Link.com,2013-06-26 08:57:00,
2013-06-26 05:12:00,64.6,64.3,29.87,SE,135,2.7,-999.0,99,-99.99,,,3.09,Acu-Link.com,2013-06-26 09:12:00,
2013-06-26 05:27:00,64.6,64.3,29.86,East,90,3.7,-999.0,99,-99.99,,,3.20,Acu-Link.com,2013-06-26 09:27:00,
2013-06-26 05:42:00,64.6,64.3,29.85,East,90,3.2,-999.0,99,-99.99,,,3.23,Acu-Link.com,2013-06-26 09:42:00,
2013-06-26 05:57:00,64.6,64.3,29.86,West,270,2.2,-999.0,99,-99.99,,,3.25,Acu-Link.com,2013-06-26 09:57:00,
2013-06-26 06:12:00,64.8,64.5,29.86,West,270,2.2,-999.0,99,-99.99,,,3.26,Acu-Link.com,2013-06-26 10:12:00,
2013-06-26 06:27:00,64.8,64.5,29.87,West,270,0.0,-999.0,99,-99.99,,,3.27,Acu-Link.com,2013-06-26 10:27:00,
2013-06-26 06:43:00,64.8,64.5,29.86,ESE,112,1.1,-999.0,99,-99.99,,,3.28,Acu-Link.com,2013-06-26 10:43:00,
2013-06-26 06:58:00,64.9,64.6,29.86,South,180,0.0,-999.0,99,-99.99,,,3.29,Acu-Link.com,2013-06-26 10:58:00,
2013-06-26 07:13:00,64.9,64.6,29.82,ESE,112,4.7,-999.0,99,-99.99,,,3.36,Acu-Link.com,2013-06-26 11:13:00,
2013-06-26 07:28:00,64.9,64.6,29.81,East,90,3.2,-999.0,99,-99.99,,,3.43,Acu-Link.com,2013-06-26 11:28:00,
2013-06-26 07:43:00,65.5,65.2,29.80,SSE,157,0.0,-999.0,99,-99.99,,,3.43,Acu-Link.com,2013-06-26 11:43:00,
2013-06-26 07:58:00,66.2,65.9,29.79,SE,135,1.7,-999.0,99,-99.99,,,3.43,Acu-Link.com,2013-06-26 11:58:00,
2013-06-26 08:14:00,69.3,69.0,29.79,SSW,202,2.2,-999.0,99,-99.99,,,3.43,Acu-Link.com,2013-06-26 12:14:00,
2013-06-26 08:29:00,70.5,70.2,29.77,SSE,157,3.7,-999.0,99,-99.99,,,3.43,Acu-Link.com,2013-06-26 12:29:00,
2013-06-26 08:44:00,71.4,68.6,29.78,West,270,4.7,-999.0,91,-99.99,,,3.43,Acu-Link.com,2013-06-26 12:44:00,
2013-06-26 08:59:00,73.8,70.3,29.79,SSW,202,3.7,-999.0,89,-99.99,,,3.43,Acu-Link.com,2013-06-26 12:59:00,
2013-06-26 09:15:00,75.2,70.0,29.80,WSW,247,5.8,-999.0,84,-99.99,,,3.43,Acu-Link.com,2013-06-26 13:15:00,
2013-06-26 09:30:00,72.1,68.3,29.81,WSW,247,3.7,-999.0,88,-99.99,,,3.43,Acu-Link.com,2013-06-26 13:30:00,
2013-06-26 09:45:00,71.6,68.5,29.82,WSW,247,6.3,-999.0,90,-99.99,,,3.43,Acu-Link.com,2013-06-26 13:45:00,
2013-06-26 10:01:00,73.0,70.2,29.81,South,180,1.7,-999.0,91,-99.99,,,3.44,Acu-Link.com,2013-06-26 14:01:00,
2013-06-26 10:16:00,76.3,70.0,29.81,South,180,7.3,-999.0,81,-99.99,,,3.44,Acu-Link.com,2013-06-26 14:16:00,
2013-06-26 10:31:00,75.7,70.5,29.80,SSW,202,4.7,-999.0,84,-99.99,,,3.44,Acu-Link.com,2013-06-26 14:31:00,
2013-06-26 10:46:00,76.1,70.2,29.81,West,270,3.7,-999.0,82,-99.99,,,3.44,Acu-Link.com,2013-06-26 14:46:00,
2013-06-26 11:01:00,76.1,70.5,29.82,WSW,247,4.2,-999.0,83,-99.99,,,3.44,Acu-Link.com,2013-06-26 15:01:00,
2013-06-26 11:16:00,77.2,70.9,29.82,SW,225,8.3,-999.0,81,-99.99,,,3.44,Acu-Link.com,2013-06-26 15:16:00,
2013-06-26 11:32:00,77.0,69.2,29.82,SW,225,8.9,-999.0,77,-99.99,,,3.44,Acu-Link.com,2013-06-26 15:32:00,
2013-06-26 11:47:00,77.2,70.5,29.82,West,270,5.8,-999.0,80,-99.99,,,3.44,Acu-Link.com,2013-06-26 15:47:00,
2013-06-26 12:02:00,77.4,70.4,29.82,WSW,247,6.3,-999.0,79,-99.99,,,3.44,Acu-Link.com,2013-06-26 16:02:00,
2013-06-26 12:17:00,78.4,69.8,29.82,West,270,3.7,-999.0,75,-99.99,,,3.44,Acu-Link.com,2013-06-26 16:17:00,
2013-06-26 12:32:00,79.0,70.0,29.82,West,270,8.9,-999.0,74,-99.99,,,3.44,Acu-Link.com,2013-06-26 16:32:00,
2013-06-26 12:48:00,78.3,70.1,29.83,West,270,9.4,-999.0,76,-99.99,,,3.44,Acu-Link.com,2013-06-26 16:48:00,
2013-06-26 13:03:00,77.2,69.4,29.83,West,270,5.8,-999.0,77,-99.99,,,3.44,Acu-Link.com,2013-06-26 17:03:00,
2013-06-26 13:18:00,79.7,70.3,29.82,West,270,5.8,-999.0,73,-99.99,,,3.44,Acu-Link.com,2013-06-26 17:18:00,
2013-06-26 13:33:00,78.1,68.7,29.82,West,270,5.8,-999.0,73,-99.99,,,3.44,Acu-Link.com,2013-06-26 17:33:00,
2013-06-26 13:48:00,78.4,69.4,29.80,SSW,202,2.7,-999.0,74,-99.99,,,3.44,Acu-Link.com,2013-06-26 17:48:00,
2013-06-26 14:03:00,79.2,69.8,29.80,SW,225,5.3,-999.0,73,-99.99,,,3.44,Acu-Link.com,2013-06-26 18:03:00,
2013-06-26 14:18:00,79.7,70.3,29.79,West,270,6.3,-999.0,73,-99.99,,,3.44,Acu-Link.com,2013-06-26 18:18:00,
2013-06-26 14:36:00,81.0,69.8,29.80,WSW,247,7.3,-999.0,69,-99.99,,,3.44,Acu-Link.com,2013-06-26 18:36:00,
2013-06-26 14:51:00,80.8,69.7,29.79,SW,225,8.9,-999.0,69,-99.99,,,3.44,Acu-Link.com,2013-06-26 18:51:00,
2013-06-26 15:06:00,79.3,69.5,29.80,WSW,247,5.3,-999.0,72,-99.99,,,3.44,Acu-Link.com,2013-06-26 19:06:00,
2013-06-26 15:21:00,79.0,68.8,29.79,West,270,5.3,-999.0,71,-99.99,,,3.44,Acu-Link.com,2013-06-26 19:21:00,
2013-06-26 15:37:00,77.0,69.6,29.79,NW,315,8.3,-999.0,78,-99.99,,,3.44,Acu-Link.com,2013-06-26 19:37:00,
2013-06-26 15:52:00,77.0,70.0,29.79,SSE,157,2.7,-999.0,79,-99.99,,,3.44,Acu-Link.com,2013-06-26 19:52:00,
2013-06-26 16:07:00,77.0,70.3,29.79,SSW,202,4.7,-999.0,80,-99.99,,,3.44,Acu-Link.com,2013-06-26 20:07:00,
2013-06-26 16:22:00,79.2,70.2,29.79,South,180,6.8,-999.0,74,-99.99,,,3.44,Acu-Link.com,2013-06-26 20:22:00,
2013-06-26 16:37:00,78.3,70.9,29.78,South,180,5.3,-999.0,78,-99.99,,,3.44,Acu-Link.com,2013-06-26 20:37:00,
2013-06-26 16:52:00,77.4,70.4,29.79,SW,225,5.3,-999.0,79,-99.99,,,3.44,Acu-Link.com,2013-06-26 20:52:00,
2013-06-26 17:07:00,80.1,71.4,29.78,West,270,4.7,-999.0,75,-99.99,,,3.44,Acu-Link.com,2013-06-26 21:07:00,
2013-06-26 17:23:00,79.3,71.1,29.78,SSW,202,6.8,-999.0,76,-99.99,,,3.44,Acu-Link.com,2013-06-26 21:23:00,
2013-06-26 17:38:00,79.9,72.0,29.77,WSW,247,2.2,-999.0,77,-99.99,,,3.44,Acu-Link.com,2013-06-26 21:38:00,
2013-06-26 17:53:00,79.9,71.6,29.76,SW,225,2.2,-999.0,76,-99.99,,,3.44,Acu-Link.com,2013-06-26 21:53:00,
2013-06-26 18:08:00,80.8,71.7,29.76,SSW,202,5.3,-999.0,74,-99.99,,,3.44,Acu-Link.com,2013-06-26 22:08:00,
2013-06-26 18:23:00,81.1,71.6,29.76,West,270,1.7,-999.0,73,-99.99,,,3.44,Acu-Link.com,2013-06-26 22:23:00,
2013-06-26 18:39:00,81.9,72.0,29.76,SSW,202,3.7,-999.0,72,-99.99,,,3.44,Acu-Link.com,2013-06-26 22:39:00,
2013-06-26 18:54:00,82.4,71.6,29.76,SW,225,3.7,-999.0,70,-99.99,,,3.44,Acu-Link.com,2013-06-26 22:54:00,
2013-06-26 19:09:00,81.1,70.8,29.75,North,0,1.1,-999.0,71,-99.99,,,3.44,Acu-Link.com,2013-06-26 23:09:00,
2013-06-26 19:24:00,80.4,70.5,29.76,WSW,247,4.2,-999.0,72,-99.99,,,3.44,Acu-Link.com,2013-06-26 23:24:00,
2013-06-26 19:40:00,79.0,70.4,29.77,SW,225,3.2,-999.0,75,-99.99,,,3.44,Acu-Link.com,2013-06-26 23:40:00,
2013-06-26 19:55:00,77.7,70.3,29.77,SSW,202,3.2,-999.0,78,-99.99,,,3.44,Acu-Link.com,2013-06-26 23:55:00,
2013-06-26 20:10:00,77.0,70.0,29.76,WSW,247,1.7,-999.0,79,-99.99,,,3.44,Acu-Link.com,2013-06-27 00:10:00,
2013-06-26 20:25:00,76.3,70.0,29.77,SSE,157,0.0,-999.0,81,-99.99,,,3.44,Acu-Link.com,2013-06-27 00:25:00,
2013-06-26 20:41:00,75.6,69.7,29.77,SSW,202,2.2,-999.0,82,-99.99,,,3.44,Acu-Link.com,2013-06-27 00:41:00,
2013-06-26 20:56:00,74.5,69.7,29.77,WSW,247,1.7,-999.0,85,-99.99,,,3.44,Acu-Link.com,2013-06-27 00:56:00,
2013-06-26 21:11:00,73.8,70.0,29.77,ESE,112,1.7,-999.0,88,-99.99,,,3.44,Acu-Link.com,2013-06-27 01:11:00,
2013-06-26 21:26:00,73.0,69.9,29.77,SE,135,2.2,-999.0,90,-99.99,,,3.44,Acu-Link.com,2013-06-27 01:26:00,
2013-06-26 21:42:00,72.7,69.6,29.76,ESE,112,0.0,-999.0,90,-99.99,,,3.44,Acu-Link.com,2013-06-27 01:42:00,
2013-06-26 21:57:00,72.3,68.9,29.76,SW,225,1.7,-999.0,89,-99.99,,,3.44,Acu-Link.com,2013-06-27 01:57:00,
2013-06-26 22:12:00,72.1,68.7,29.76,WSW,247,1.7,-999.0,89,-99.99,,,3.44,Acu-Link.com,2013-06-27 02:12:00,
2013-06-26 22:27:00,71.8,68.7,29.77,WSW,247,0.0,-999.0,90,-99.99,,,3.44,Acu-Link.com,2013-06-27 02:27:00,
2013-06-26 22:43:00,71.2,68.4,29.76,SW,225,2.7,-999.0,91,-99.99,,,3.44,Acu-Link.com,2013-06-27 02:43:00,
2013-06-26 22:58:00,70.9,68.8,29.76,West,270,2.7,-999.0,93,-99.99,,,3.44,Acu-Link.com,2013-06-27 02:58:00,
2013-06-26 23:13:00,70.5,68.4,29.76,SW,225,1.7,-999.0,93,-99.99,,,3.44,Acu-Link.com,2013-06-27 03:13:00,
2013-06-26 23:28:00,70.3,68.2,29.75,ESE,112,0.0,-999.0,93,-99.99,,,3.44,Acu-Link.com,2013-06-27 03:28:00,
2013-06-26 23:43:00,70.2,68.1,29.74,ESE,112,0.0,-999.0,93,-99.99,,,3.44,Acu-Link.com,2013-06-27 03:43:00,
2013-06-26 23:59:00,69.8,68.3,29.73,West,270,1.7,-999.0,95,-99.99,,,3.44,Acu-Link.com,2013-06-27 03:59:00,